Time,TemperatureF,DewpointF,PressureIn,WindDirection,WindDirectionDegrees,WindSpeedMPH,WindSpeedGustMPH,Humidity,HourlyPrecipIn,Conditions,Clouds,dailyrainin,SoftwareType,DateUTC
2013-11-06 00:01:00,40.6,34.1,30.54,ENE,64,0.0,0.0,77,0.00,,CLR,0.00,VWS V14.01,2013-11-06 05:01:00,
2013-11-06 00:06:00,40.8,34.3,30.54,ENE,64,0.0,0.0,77,0.00,,CLR,0.00,VWS V14.01,2013-11-06 05:06:00,
2013-11-06 00:11:00,40.6,34.1,30.54,ENE,64,0.0,0.0,77,0.00,,CLR,0.00,VWS V14.01,2013-11-06 05:11:00,
2013-11-06 00:16:00,40.3,33.6,30.51,ENE,64,0.0,0.0,77,0.00,,CLR,0.00,VWS V14.01,2013-11-06 05:16:00,
2013-11-06 00:21:00,40.1,33.4,30.51,ENE,64,0.0,0.0,77,0.00,,CLR,0.00,VWS V14.01,2013-11-06 05:21:00,
2013-11-06 00:26:00,40.1,33.6,30.51,ENE,64,0.0,0.0,77,0.00,,CLR,0.00,VWS V14.01,2013-11-06 05:26:00,
2013-11-06 00:31:00,39.9,33.4,30.51,ENE,64,0.0,0.0,77,0.00,,CLR,0.00,VWS V14.01,2013-11-06 05:31:00,
2013-11-06 00:36:00,39.9,33.4,30.51,ENE,64,0.0,0.0,77,0.00,,CLR,0.00,VWS V14.01,2013-11-06 05:36:00,
2013-11-06 00:41:00,39.9,33.4,30.51,ENE,64,0.0,0.0,77,0.00,,CLR,0.00,VWS V14.01,2013-11-06 05:41:00,
2013-11-06 00:46:00,39.9,33.7,30.51,ENE,64,0.0,0.0,78,0.00,,CLR,0.00,VWS V14.01,2013-11-06 05:46:00,
2013-11-06 00:51:00,39.9,33.7,30.51,ENE,64,0.0,0.0,78,0.00,,CLR,0.00,VWS V14.01,2013-11-06 05:51:00,
2013-11-06 00:56:00,40.3,34.0,30.51,ENE,64,0.0,0.0,78,0.00,,CLR,0.00,VWS V14.01,2013-11-06 05:56:00,
2013-11-06 01:01:00,40.3,34.0,30.51,ENE,64,0.0,0.0,78,0.00,,CLR,0.00,VWS V14.01,2013-11-06 06:01:00,
2013-11-06 01:06:00,40.3,34.0,30.51,ENE,64,0.0,0.0,78,0.00,,CLR,0.00,VWS V14.01,2013-11-06 06:06:00,
2013-11-06 01:11:00,40.3,34.0,30.51,ENE,64,0.0,0.0,78,0.00,,CLR,0.00,VWS V14.01,2013-11-06 06:11:00,
2013-11-06 01:16:00,40.3,34.2,30.51,ENE,64,0.0,0.0,79,0.00,,CLR,0.00,VWS V14.01,2013-11-06 06:16:00,
2013-11-06 01:21:00,40.5,34.4,30.51,ENE,64,0.0,0.0,79,0.00,,CLR,0.00,VWS V14.01,2013-11-06 06:21:00,
2013-11-06 01:26:00,40.5,34.4,30.51,ENE,64,0.0,0.0,79,0.00,,CLR,0.00,VWS V14.01,2013-11-06 06:26:00,
2013-11-06 01:31:00,40.6,34.6,30.51,ENE,64,0.0,0.0,79,0.00,,CLR,0.00,VWS V14.01,2013-11-06 06:31:00,
2013-11-06 01:36:00,40.6,34.8,30.51,ENE,64,0.0,0.0,79,0.00,,CLR,0.00,VWS V14.01,2013-11-06 06:36:00,
2013-11-06 01:41:00,40.6,34.6,30.51,ENE,64,0.0,0.0,79,0.00,,CLR,0.00,VWS V14.01,2013-11-06 06:41:00,
2013-11-06 01:46:00,40.5,34.4,30.51,ENE,64,0.0,0.0,79,0.00,,CLR,0.00,VWS V14.01,2013-11-06 06:46:00,
2013-11-06 01:51:00,40.5,34.4,30.51,ENE,64,0.0,0.0,79,0.00,,CLR,0.00,VWS V14.01,2013-11-06 06:51:00,
2013-11-06 01:56:00,40.5,34.4,30.51,ENE,64,0.0,0.0,79,0.00,,CLR,0.00,VWS V14.01,2013-11-06 06:56:00,
2013-11-06 02:01:00,40.5,34.4,30.48,ENE,64,0.0,0.0,79,0.00,,FEW120,0.00,VWS V14.01,2013-11-06 07:01:00,
2013-11-06 02:06:00,40.5,34.4,30.48,ENE,64,0.0,0.0,79,0.00,,FEW120,0.00,VWS V14.01,2013-11-06 07:06:00,
2013-11-06 02:11:00,40.6,34.8,30.48,ENE,64,0.0,0.0,79,0.00,,FEW120,0.00,VWS V14.01,2013-11-06 07:11:00,
2013-11-06 02:16:00,41.0,35.1,30.48,ENE,64,0.0,0.0,79,0.00,,FEW120,0.00,VWS V14.01,2013-11-06 07:16:00,
2013-11-06 02:21:00,41.0,34.9,30.48,ENE,64,0.0,0.0,79,0.00,,FEW120,0.00,VWS V14.01,2013-11-06 07:21:00,
2013-11-06 02:26:00,40.8,34.7,30.48,ENE,64,0.0,0.0,79,0.00,,FEW120,0.00,VWS V14.01,2013-11-06 07:26:00,
2013-11-06 02:31:00,40.8,34.7,30.48,ENE,64,0.0,0.0,79,0.00,,FEW120,0.00,VWS V14.01,2013-11-06 07:31:00,
2013-11-06 02:36:00,40.8,34.7,30.48,ENE,64,0.0,0.0,79,0.00,,FEW120,0.00,VWS V14.01,2013-11-06 07:36:00,
2013-11-06 02:41:00,41.0,34.9,30.48,ENE,64,0.0,0.0,79,0.00,,FEW120,0.00,VWS V14.01,2013-11-06 07:41:00,
2013-11-06 02:46:00,41.0,34.9,30.48,ENE,64,0.0,0.0,79,0.00,,FEW120,0.00,VWS V14.01,2013-11-06 07:46:00,
2013-11-06 02:51:00,41.0,34.9,30.48,ENE,64,0.0,0.0,79,0.00,,FEW120,0.00,VWS V14.01,2013-11-06 07:51:00,
2013-11-06 02:56:00,40.8,34.7,30.48,ENE,64,0.0,0.0,79,0.00,,FEW120,0.00,VWS V14.01,2013-11-06 07:56:00,
2013-11-06 03:01:00,40.6,34.6,30.48,ENE,64,0.0,0.0,79,0.00,,CLR,0.00,VWS V14.01,2013-11-06 08:01:00,
2013-11-06 03:06:00,40.5,34.4,30.48,ENE,64,0.0,0.0,79,0.00,,CLR,0.00,VWS V14.01,2013-11-06 08:06:00,
2013-11-06 03:11:00,40.1,34.0,30.48,ENE,64,0.0,0.0,79,0.00,,CLR,0.00,VWS V14.01,2013-11-06 08:11:00,
2013-11-06 03:16:00,39.9,34.1,30.48,ENE,64,0.0,0.0,79,0.00,,CLR,0.00,VWS V14.01,2013-11-06 08:16:00,
2013-11-06 03:21:00,39.6,33.7,30.48,ENE,64,0.0,0.0,79,0.00,,CLR,0.00,VWS V14.01,2013-11-06 08:21:00,
2013-11-06 03:26:00,39.4,33.6,30.48,ENE,64,0.0,0.0,79,0.00,,CLR,0.00,VWS V14.01,2013-11-06 08:26:00,
2013-11-06 03:31:00,39.0,33.4,30.48,ENE,64,0.0,0.0,80,0.00,,CLR,0.00,VWS V14.01,2013-11-06 08:31:00,
2013-11-06 03:36:00,38.8,33.5,30.48,ENE,64,0.0,0.0,81,0.00,,CLR,0.00,VWS V14.01,2013-11-06 08:36:00,
2013-11-06 03:41:00,38.5,33.1,30.48,ENE,64,0.0,0.0,81,0.00,,CLR,0.00,VWS V14.01,2013-11-06 08:41:00,
2013-11-06 03:46:00,38.3,32.9,30.48,ENE,64,0.0,0.0,81,0.00,,CLR,0.00,VWS V14.01,2013-11-06 08:46:00,
2013-11-06 03:51:00,38.1,32.8,30.48,ENE,64,0.0,0.0,81,0.00,,CLR,0.00,VWS V14.01,2013-11-06 08:51:00,
2013-11-06 03:56:00,37.8,32.6,30.48,ENE,64,0.0,0.0,81,0.00,,CLR,0.00,VWS V14.01,2013-11-06 08:56:00,
2013-11-06 04:01:00,37.8,33.0,30.48,ENE,64,0.0,0.0,83,0.00,,FEW120,0.00,VWS V14.01,2013-11-06 09:01:00,
2013-11-06 04:06:00,37.6,32.8,30.48,ENE,64,0.0,0.0,83,0.00,,FEW120,0.00,VWS V14.01,2013-11-06 09:06:00,
2013-11-06 04:11:00,37.4,32.7,30.48,ENE,64,0.0,0.0,83,0.00,,FEW120,0.00,VWS V14.01,2013-11-06 09:11:00,
2013-11-06 04:16:00,37.4,32.7,30.48,ENE,64,0.0,0.0,83,0.00,,FEW120,0.00,VWS V14.01,2013-11-06 09:16:00,
2013-11-06 04:21:00,37.4,33.1,30.48,ENE,64,0.0,0.0,84,0.00,,FEW120,0.00,VWS V14.01,2013-11-06 09:21:00,
2013-11-06 04:26:00,37.4,33.3,30.48,ENE,64,0.0,0.0,85,0.00,,FEW120,0.00,VWS V14.01,2013-11-06 09:26:00,
2013-11-06 04:31:00,37.2,33.1,30.48,ENE,64,0.0,0.0,85,0.00,,FEW120,0.00,VWS V14.01,2013-11-06 09:31:00,
2013-11-06 04:36:00,37.2,33.3,30.48,ENE,64,0.0,0.0,86,0.00,,FEW120,0.00,VWS V14.01,2013-11-06 09:36:00,
2013-11-06 04:41:00,37.4,33.7,30.48,ENE,64,0.0,0.0,86,0.00,,FEW120,0.00,VWS V14.01,2013-11-06 09:41:00,
2013-11-06 04:46:00,37.8,34.4,30.45,ENE,64,0.0,0.0,88,0.00,,FEW120,0.00,VWS V14.01,2013-11-06 09:46:00,
2013-11-06 04:51:00,38.1,34.8,30.45,ENE,64,0.0,0.0,88,0.00,,FEW120,0.00,VWS V14.01,2013-11-06 09:51:00,
2013-11-06 04:56:00,38.5,35.3,30.45,ENE,64,0.0,0.0,88,0.00,,FEW120,0.00,VWS V14.01,2013-11-06 09:56:00,
2013-11-06 05:01:00,38.7,35.3,30.48,ENE,64,0.0,0.0,88,0.00,,BKN120,0.00,VWS V14.01,2013-11-06 10:01:00,
2013-11-06 05:06:00,38.8,35.1,30.48,ENE,64,0.0,0.0,86,0.00,,BKN120,0.00,VWS V14.01,2013-11-06 10:06:00,
2013-11-06 05:11:00,38.8,35.1,30.48,ENE,64,0.0,0.0,86,0.00,,BKN120,0.00,VWS V14.01,2013-11-06 10:11:00,
2013-11-06 05:16:00,39.2,35.2,30.48,ENE,64,0.0,0.0,86,0.00,,BKN120,0.00,VWS V14.01,2013-11-06 10:16:00,
2013-11-06 05:21:00,39.4,35.2,30.48,ENE,64,0.0,0.0,85,0.00,,BKN120,0.00,VWS V14.01,2013-11-06 10:21:00,
2013-11-06 05:26:00,39.4,35.2,30.48,ENE,64,0.0,0.0,85,0.00,,BKN120,0.00,VWS V14.01,2013-11-06 10:26:00,
2013-11-06 05:31:00,39.6,35.4,30.45,ENE,64,0.0,0.0,85,0.00,,BKN120,0.00,VWS V14.01,2013-11-06 10:31:00,
2013-11-06 05:36:00,39.7,35.4,30.45,ENE,64,0.0,0.0,84,0.00,,BKN120,0.00,VWS V14.01,2013-11-06 10:36:00,
2013-11-06 05:41:00,39.9,35.5,30.45,ENE,64,0.0,0.0,84,0.00,,BKN120,0.00,VWS V14.01,2013-11-06 10:41:00,
2013-11-06 05:46:00,40.1,35.7,30.45,ENE,64,0.0,0.0,84,0.00,,BKN120,0.00,VWS V14.01,2013-11-06 10:46:00,
2013-11-06 05:51:00,40.1,35.7,30.45,ENE,64,0.0,0.0,84,0.00,,BKN120,0.00,VWS V14.01,2013-11-06 10:51:00,
2013-11-06 05:56:00,40.1,35.5,30.45,ENE,64,0.0,0.0,83,0.00,,BKN120,0.00,VWS V14.01,2013-11-06 10:56:00,
2013-11-06 06:01:00,39.9,35.1,30.45,ENE,64,0.0,0.0,83,0.00,,SCT100,0.00,VWS V14.01,2013-11-06 11:01:00,
2013-11-06 06:06:00,39.7,35.0,30.45,ENE,64,0.0,0.0,83,0.00,,SCT100,0.00,VWS V14.01,2013-11-06 11:06:00,
2013-11-06 06:11:00,39.7,35.0,30.45,ENE,64,0.0,0.0,83,0.00,,SCT100,0.00,VWS V14.01,2013-11-06 11:11:00,
2013-11-06 06:16:00,39.6,34.8,30.45,ENE,64,0.0,0.0,83,0.00,,SCT100,0.00,VWS V14.01,2013-11-06 11:16:00,
2013-11-06 06:21:00,39.4,34.6,30.45,ENE,64,0.0,0.0,83,0.00,,SCT100,0.00,VWS V14.01,2013-11-06 11:21:00,
2013-11-06 06:26:00,39.0,34.2,30.45,ENE,64,0.0,0.0,83,0.00,,SCT100,0.00,VWS V14.01,2013-11-06 11:26:00,
2013-11-06 06:31:00,38.8,34.3,30.45,ENE,64,0.0,0.0,83,0.00,,SCT100,0.00,VWS V14.01,2013-11-06 11:31:00,
2013-11-06 06:36:00,38.7,34.1,30.45,ENE,64,0.0,0.0,83,0.00,,SCT100,0.00,VWS V14.01,2013-11-06 11:36:00,
2013-11-06 06:41:00,38.7,34.3,30.45,ENE,64,0.0,0.0,84,0.00,,SCT100,0.00,VWS V14.01,2013-11-06 11:41:00,
2013-11-06 06:46:00,38.8,34.7,30.45,ENE,64,0.0,0.0,85,0.00,,SCT100,0.00,VWS V14.01,2013-11-06 11:46:00,
2013-11-06 06:51:00,38.8,34.7,30.45,ENE,64,0.0,0.0,85,0.00,,SCT100,0.00,VWS V14.01,2013-11-06 11:51:00,
2013-11-06 06:56:00,39.4,35.4,30.45,ENE,64,0.0,0.0,86,0.00,,SCT100,0.00,VWS V14.01,2013-11-06 11:56:00,
2013-11-06 07:01:00,39.7,36.0,30.45,ENE,64,0.0,0.0,86,0.00,,CLR,0.00,VWS V14.01,2013-11-06 12:01:00,
2013-11-06 07:06:00,39.9,36.1,30.45,ENE,64,0.0,0.0,86,0.00,,CLR,0.00,VWS V14.01,2013-11-06 12:06:00,
2013-11-06 07:11:00,39.9,36.1,30.45,ENE,64,0.0,0.0,86,0.00,,CLR,0.00,VWS V14.01,2013-11-06 12:11:00,
2013-11-06 07:16:00,39.9,36.1,30.45,ENE,64,0.0,0.0,86,0.00,,CLR,0.00,VWS V14.01,2013-11-06 12:16:00,
2013-11-06 07:21:00,39.9,36.1,30.45,ENE,64,0.0,0.0,86,0.00,,CLR,0.00,VWS V14.01,2013-11-06 12:21:00,
2013-11-06 07:26:00,40.3,36.7,30.45,ENE,64,0.0,0.0,87,0.00,,CLR,0.00,VWS V14.01,2013-11-06 12:26:00,
2013-11-06 07:30:00,40.6,37.0,30.45,ENE,64,0.0,0.0,87,0.00,,CLR,0.00,VWS V14.01,2013-11-06 12:30:00,
2013-11-06 07:35:00,41.2,37.6,30.45,ENE,64,0.0,0.0,87,0.00,,CLR,0.00,VWS V14.01,2013-11-06 12:35:00,
2013-11-06 07:40:00,41.4,37.8,30.45,ENE,64,0.0,0.0,87,0.00,,CLR,0.00,VWS V14.01,2013-11-06 12:40:00,
2013-11-06 07:45:00,41.9,38.1,30.45,ENE,64,0.0,0.0,86,0.00,,CLR,0.00,VWS V14.01,2013-11-06 12:45:00,
2013-11-06 07:50:00,42.4,38.8,30.45,ENE,64,0.0,0.0,87,0.00,,CLR,0.00,VWS V14.01,2013-11-06 12:50:00,
2013-11-06 07:55:00,43.2,39.3,30.45,ENE,64,0.0,0.0,86,0.00,,CLR,0.00,VWS V14.01,2013-11-06 12:55:00,
2013-11-06 08:00:00,43.7,39.8,30.45,ENE,64,0.0,0.0,86,0.00,,CLR,0.00,VWS V14.01,2013-11-06 13:00:00,
2013-11-06 08:05:00,44.4,40.4,30.45,ENE,64,0.0,0.0,86,0.00,,CLR,0.00,VWS V14.01,2013-11-06 13:05:00,
2013-11-06 08:10:00,45.3,41.2,30.45,ENE,64,0.0,0.0,86,0.00,,CLR,0.00,VWS V14.01,2013-11-06 13:10:00,
2013-11-06 08:15:00,46.2,42.1,30.42,ENE,64,0.0,0.0,86,0.00,,CLR,0.00,VWS V14.01,2013-11-06 13:15:00,
2013-11-06 08:20:00,46.9,42.6,30.42,ENE,64,0.0,0.0,85,0.00,,CLR,0.00,VWS V14.01,2013-11-06 13:20:00,
2013-11-06 08:25:00,47.7,43.1,30.42,ENE,64,0.0,0.0,84,0.00,,CLR,0.00,VWS V14.01,2013-11-06 13:25:00,
2013-11-06 08:30:00,48.9,43.7,30.42,ENE,64,0.0,0.0,82,0.00,,CLR,0.00,VWS V14.01,2013-11-06 13:30:00,
2013-11-06 08:35:00,50.4,44.2,30.42,ENE,64,0.0,0.0,79,0.00,,CLR,0.00,VWS V14.01,2013-11-06 13:35:00,
2013-11-06 08:40:00,51.6,42.9,30.42,NE,55,0.0,5.4,72,0.00,,CLR,0.00,VWS V14.01,2013-11-06 13:40:00,
2013-11-06 08:45:00,52.9,43.4,30.42,NE,55,0.0,0.0,70,0.00,,CLR,0.00,VWS V14.01,2013-11-06 13:45:00,
2013-11-06 08:50:00,54.1,43.8,30.42,SSE,166,4.5,4.5,68,0.00,,CLR,0.00,VWS V14.01,2013-11-06 13:50:00,
2013-11-06 08:55:00,55.0,44.4,30.42,SSW,194,0.0,0.0,67,0.00,,CLR,0.00,VWS V14.01,2013-11-06 13:55:00,
2013-11-06 09:00:00,55.4,44.7,30.42,SSW,194,0.0,0.0,67,0.00,,CLR,0.00,VWS V14.01,2013-11-06 14:00:00,
2013-11-06 09:05:00,55.9,45.0,30.42,South,190,0.0,7.2,67,0.00,,CLR,0.00,VWS V14.01,2013-11-06 14:05:00,
2013-11-06 09:10:00,57.2,45.9,30.42,SW,215,8.1,8.1,66,0.00,,CLR,0.00,VWS V14.01,2013-11-06 14:10:00,
2013-11-06 09:15:00,57.0,45.8,30.42,SSE,167,5.4,6.3,66,0.00,,CLR,0.00,VWS V14.01,2013-11-06 14:15:00,
2013-11-06 09:20:00,56.7,45.4,30.42,East,79,7.2,7.2,66,0.00,,CLR,0.00,VWS V14.01,2013-11-06 14:20:00,
2013-11-06 09:25:00,56.5,45.2,30.42,East,101,0.0,0.0,66,0.00,,CLR,0.00,VWS V14.01,2013-11-06 14:25:00,
2013-11-06 09:30:00,56.3,45.1,30.42,NNW,345,0.0,6.3,66,0.00,,CLR,0.00,VWS V14.01,2013-11-06 14:30:00,
2013-11-06 09:35:00,55.9,44.7,30.42,South,175,0.0,0.0,66,0.00,,CLR,0.00,VWS V14.01,2013-11-06 14:35:00,
2013-11-06 09:40:00,55.8,44.5,30.42,SW,226,5.4,7.2,66,0.00,,CLR,0.00,VWS V14.01,2013-11-06 14:40:00,
2013-11-06 09:45:00,55.8,44.5,30.42,NE,36,5.4,7.2,66,0.00,,CLR,0.00,VWS V14.01,2013-11-06 14:45:00,
2013-11-06 09:50:00,56.1,44.9,30.42,SW,230,5.4,5.4,66,0.00,,CLR,0.00,VWS V14.01,2013-11-06 14:50:00,
2013-11-06 09:55:00,56.3,45.1,30.42,West,277,7.2,7.2,66,0.00,,CLR,0.00,VWS V14.01,2013-11-06 14:55:00,
2013-11-06 10:00:00,56.8,45.6,30.39,SSW,213,0.0,0.0,66,0.00,,SCT047,0.00,VWS V14.01,2013-11-06 15:00:00,
2013-11-06 10:05:00,57.0,45.2,30.39,ESE,110,5.4,7.2,65,0.00,,SCT047,0.00,VWS V14.01,2013-11-06 15:05:00,
2013-11-06 10:10:00,56.8,45.0,30.39,SSW,211,8.1,8.1,65,0.00,,SCT047,0.00,VWS V14.01,2013-11-06 15:10:00,
2013-11-06 10:15:00,56.8,45.3,30.39,East,95,0.0,0.0,65,0.00,,SCT047,0.00,VWS V14.01,2013-11-06 15:15:00,
2013-11-06 10:20:00,57.2,45.4,30.39,SSW,206,0.0,5.4,65,0.00,,SCT047,0.00,VWS V14.01,2013-11-06 15:20:00,
2013-11-06 10:25:00,57.4,45.5,30.39,South,185,5.4,5.4,65,0.00,,SCT047,0.00,VWS V14.01,2013-11-06 15:25:00,
2013-11-06 10:30:00,57.4,45.5,30.39,SSW,193,0.0,0.0,65,0.00,,SCT047,0.00,VWS V14.01,2013-11-06 15:30:00,
2013-11-06 10:35:00,57.2,45.4,30.39,ESE,105,0.0,0.0,65,0.00,,SCT047,0.00,VWS V14.01,2013-11-06 15:35:00,
2013-11-06 10:40:00,57.2,45.4,30.39,ESE,110,8.1,8.1,65,0.00,,SCT047,0.00,VWS V14.01,2013-11-06 15:40:00,
2013-11-06 10:45:00,57.4,45.3,30.39,ESE,113,7.2,7.2,64,0.00,,SCT047,0.00,VWS V14.01,2013-11-06 15:45:00,
2013-11-06 10:50:00,57.9,45.8,30.39,SSW,210,0.0,4.5,64,0.00,,SCT047,0.00,VWS V14.01,2013-11-06 15:50:00,
2013-11-06 10:55:00,60.4,47.6,30.39,SSW,193,6.3,7.2,63,0.00,,SCT047,0.00,VWS V14.01,2013-11-06 15:55:00,
2013-11-06 11:00:00,63.0,48.8,30.39,SSW,198,6.3,6.3,60,0.00,,CLR,0.00,VWS V14.01,2013-11-06 16:00:00,
2013-11-06 11:05:00,62.6,48.5,30.39,South,186,7.2,8.1,60,0.00,,CLR,0.00,VWS V14.01,2013-11-06 16:05:00,
2013-11-06 11:10:00,62.1,47.9,30.39,ESE,113,7.2,7.2,60,0.00,,CLR,0.00,VWS V14.01,2013-11-06 16:10:00,
2013-11-06 11:15:00,62.4,48.3,30.36,ESE,105,4.5,6.3,60,0.00,,CLR,0.00,VWS V14.01,2013-11-06 16:15:00,
2013-11-06 11:20:00,62.6,48.2,30.36,SE,126,7.2,7.2,59,0.00,,CLR,0.00,VWS V14.01,2013-11-06 16:20:00,
2013-11-06 11:25:00,61.7,47.3,30.36,SSW,195,6.3,6.3,59,0.00,,CLR,0.00,VWS V14.01,2013-11-06 16:25:00,
2013-11-06 11:30:00,60.6,46.6,30.36,South,172,8.1,8.1,60,0.00,,CLR,0.00,VWS V14.01,2013-11-06 16:30:00,
2013-11-06 11:35:00,60.8,46.5,30.36,East,81,6.3,8.1,59,0.00,,CLR,0.00,VWS V14.01,2013-11-06 16:35:00,
2013-11-06 11:40:00,61.7,47.3,30.36,SSW,196,7.2,8.1,59,0.00,,CLR,0.00,VWS V14.01,2013-11-06 16:40:00,
2013-11-06 11:45:00,61.9,47.5,30.36,ESE,104,5.4,5.4,59,0.00,,CLR,0.00,VWS V14.01,2013-11-06 16:45:00,
2013-11-06 11:50:00,61.2,46.8,30.36,ESE,105,0.0,5.4,59,0.00,,CLR,0.00,VWS V14.01,2013-11-06 16:50:00,
2013-11-06 11:55:00,60.6,46.3,30.36,SE,139,7.2,7.2,59,0.00,,CLR,0.00,VWS V14.01,2013-11-06 16:55:00,
2013-11-06 12:00:00,60.8,46.5,30.33,SW,217,8.1,8.1,59,0.00,,OVC047,0.00,VWS V14.01,2013-11-06 17:00:00,
2013-11-06 12:05:00,61.9,47.5,30.33,East,97,11.6,11.6,59,0.00,,OVC047,0.00,VWS V14.01,2013-11-06 17:05:00,
2013-11-06 12:10:00,63.0,48.2,30.33,East,97,7.2,8.1,58,0.00,,OVC047,0.00,VWS V14.01,2013-11-06 17:10:00,
2013-11-06 12:15:00,63.0,48.2,30.33,South,175,5.4,9.8,58,0.00,,OVC047,0.00,VWS V14.01,2013-11-06 17:15:00,
2013-11-06 12:20:00,62.1,47.3,30.33,SW,215,10.7,10.7,58,0.00,,OVC047,0.00,VWS V14.01,2013-11-06 17:20:00,
2013-11-06 12:25:00,62.8,48.0,30.33,East,96,5.4,5.4,58,0.00,,OVC047,0.00,VWS V14.01,2013-11-06 17:25:00,
2013-11-06 12:30:00,63.0,48.2,30.33,SSW,193,8.1,9.8,58,0.00,,OVC047,0.00,VWS V14.01,2013-11-06 17:30:00,
2013-11-06 12:35:00,63.0,48.2,30.33,SSW,213,7.2,12.5,58,0.00,,OVC047,0.00,VWS V14.01,2013-11-06 17:35:00,
2013-11-06 12:40:00,63.0,48.2,30.33,WSW,238,0.0,5.4,58,0.00,,OVC047,0.00,VWS V14.01,2013-11-06 17:40:00,
2013-11-06 12:45:00,63.3,48.5,30.30,SW,217,6.3,6.3,58,0.00,,OVC047,0.00,VWS V14.01,2013-11-06 17:45:00,
2013-11-06 12:50:00,62.6,47.8,30.30,SW,222,0.0,0.0,58,0.00,,OVC047,0.00,VWS V14.01,2013-11-06 17:50:00,
2013-11-06 12:55:00,61.7,47.0,30.30,SE,128,0.0,0.0,58,0.00,,OVC047,0.00,VWS V14.01,2013-11-06 17:55:00,
2013-11-06 13:00:00,61.0,46.3,30.30,SSW,199,5.4,5.4,58,0.00,,OVC050,0.00,VWS V14.01,2013-11-06 18:00:00,
2013-11-06 13:05:00,60.6,46.3,30.30,South,172,0.0,0.0,59,0.00,,OVC050,0.00,VWS V14.01,2013-11-06 18:05:00,
2013-11-06 13:10:00,60.6,46.3,30.30,East,101,7.2,7.2,59,0.00,,OVC050,0.00,VWS V14.01,2013-11-06 18:10:00,
2013-11-06 13:15:00,60.4,46.1,30.30,SSW,209,6.3,6.3,59,0.00,,OVC050,0.00,VWS V14.01,2013-11-06 18:15:00,
2013-11-06 13:20:00,60.3,46.0,30.30,SSW,209,0.0,0.0,59,0.00,,OVC050,0.00,VWS V14.01,2013-11-06 18:20:00,
2013-11-06 13:25:00,60.3,46.0,30.30,SSW,209,5.4,5.4,59,0.00,,OVC050,0.00,VWS V14.01,2013-11-06 18:25:00,
2013-11-06 13:30:00,60.1,45.8,30.27,South,175,6.3,6.3,59,0.00,,OVC050,0.00,VWS V14.01,2013-11-06 18:30:00,
2013-11-06 13:35:00,59.7,45.4,30.27,West,260,6.3,7.2,59,0.00,,OVC050,0.00,VWS V14.01,2013-11-06 18:35:00,
2013-11-06 13:40:00,59.4,45.1,30.27,SSW,211,0.0,0.0,59,0.00,,OVC050,0.00,VWS V14.01,2013-11-06 18:40:00,
2013-11-06 13:45:00,59.2,44.9,30.27,SSW,201,0.0,0.0,59,0.00,,OVC050,0.00,VWS V14.01,2013-11-06 18:45:00,
2013-11-06 13:50:00,59.4,45.1,30.27,SSW,206,7.2,7.2,59,0.00,,OVC050,0.00,VWS V14.01,2013-11-06 18:50:00,
2013-11-06 13:55:00,59.0,44.8,30.27,SSW,192,0.0,0.0,59,0.00,,OVC050,0.00,VWS V14.01,2013-11-06 18:55:00,
2013-11-06 14:00:00,58.5,44.6,30.27,South,189,5.4,8.1,60,0.00,,OVC050,0.00,VWS V14.01,2013-11-06 19:00:00,
2013-11-06 14:05:00,58.6,45.0,30.27,South,191,0.0,5.4,60,0.00,,OVC060,0.00,VWS V14.01,2013-11-06 19:05:00,
2013-11-06 14:10:00,59.0,45.1,30.27,South,191,0.0,0.0,60,0.00,,OVC060,0.00,VWS V14.01,2013-11-06 19:10:00,
2013-11-06 14:15:00,59.4,45.4,30.27,East,98,0.0,0.0,60,0.00,,OVC060,0.00,VWS V14.01,2013-11-06 19:15:00,
2013-11-06 14:20:00,59.7,45.7,30.27,ESE,112,8.1,8.1,60,0.00,,OVC060,0.00,VWS V14.01,2013-11-06 19:20:00,
2013-11-06 14:25:00,59.5,45.6,30.27,SW,216,0.0,0.0,60,0.00,,OVC060,0.00,VWS V14.01,2013-11-06 19:25:00,
2013-11-06 14:30:00,59.2,45.2,30.27,SW,220,0.0,0.0,60,0.00,,OVC060,0.00,VWS V14.01,2013-11-06 19:30:00,
2013-11-06 14:35:00,59.2,45.5,30.27,South,186,0.0,0.0,60,0.00,,OVC060,0.00,VWS V14.01,2013-11-06 19:35:00,
2013-11-06 14:40:00,59.0,45.4,30.27,West,280,0.0,8.1,60,0.00,,OVC060,0.00,VWS V14.01,2013-11-06 19:40:00,
2013-11-06 14:45:00,59.0,45.4,30.27,ESE,108,7.2,7.2,60,0.00,,OVC060,0.00,VWS V14.01,2013-11-06 19:45:00,
2013-11-06 14:50:00,59.0,46.0,30.27,ESE,119,0.0,0.0,62,0.00,,OVC060,0.00,VWS V14.01,2013-11-06 19:50:00,
2013-11-06 14:55:00,58.6,46.2,30.27,SSW,202,8.1,8.1,63,0.00,,OVC060,0.00,VWS V14.01,2013-11-06 19:55:00,
2013-11-06 15:00:00,58.5,46.3,30.27,SSW,195,7.2,7.2,64,0.00,,OVC060,0.00,VWS V14.01,2013-11-06 20:00:00,
2013-11-06 15:05:00,58.3,46.4,30.27,SSW,206,5.4,5.4,65,0.00,,OVC060,0.00,VWS V14.01,2013-11-06 20:05:00,
2013-11-06 15:10:00,58.3,46.4,30.27,SSW,203,0.0,0.0,65,0.00,,OVC060,0.00,VWS V14.01,2013-11-06 20:10:00,
2013-11-06 15:15:00,58.3,46.4,30.27,SSW,203,0.0,0.0,65,0.00,,OVC060,0.00,VWS V14.01,2013-11-06 20:15:00,
2013-11-06 15:20:00,58.3,46.7,30.27,East,95,0.0,0.0,65,0.00,,OVC060,0.00,VWS V14.01,2013-11-06 20:20:00,
2013-11-06 15:25:00,58.5,47.1,30.27,SE,130,4.5,5.4,66,0.00,,OVC060,0.00,VWS V14.01,2013-11-06 20:25:00,
2013-11-06 15:30:00,58.5,47.1,30.27,SSW,210,0.0,0.0,66,0.00,,OVC060,0.00,VWS V14.01,2013-11-06 20:30:00,
2013-11-06 15:35:00,58.3,47.0,30.27,SSW,202,6.3,6.3,66,0.00,,OVC060,0.00,VWS V14.01,2013-11-06 20:35:00,
2013-11-06 15:40:00,58.1,46.8,30.27,SSW,202,0.0,0.0,66,0.00,,OVC060,0.00,VWS V14.01,2013-11-06 20:40:00,
2013-11-06 15:45:00,58.1,46.8,30.27,SSW,203,0.0,0.0,66,0.00,,OVC060,0.00,VWS V14.01,2013-11-06 20:45:00,
2013-11-06 15:50:00,57.9,46.6,30.27,SSW,203,0.0,0.0,66,0.00,,OVC060,0.00,VWS V14.01,2013-11-06 20:50:00,
2013-11-06 15:55:00,57.9,46.6,30.27,SSW,203,0.0,0.0,66,0.00,,OVC060,0.00,VWS V14.01,2013-11-06 20:55:00,
2013-11-06 16:00:00,57.9,46.6,30.27,SSW,203,0.0,0.0,66,0.00,,OVC060,0.00,VWS V14.01,2013-11-06 21:00:00,
2013-11-06 16:05:00,57.7,46.4,30.27,SSW,203,0.0,0.0,66,0.00,,BKN055,0.00,VWS V14.01,2013-11-06 21:05:00,
2013-11-06 16:10:00,57.7,46.4,30.27,South,173,0.0,0.0,66,0.00,,BKN055,0.00,VWS V14.01,2013-11-06 21:10:00,
2013-11-06 16:15:00,57.6,46.3,30.27,South,173,0.0,0.0,66,0.00,,BKN055,0.00,VWS V14.01,2013-11-06 21:15:00,
2013-11-06 16:20:00,57.6,46.5,30.27,South,173,0.0,0.0,67,0.00,,BKN055,0.00,VWS V14.01,2013-11-06 21:20:00,
2013-11-06 16:25:00,57.6,46.5,30.27,South,173,0.0,0.0,67,0.00,,BKN055,0.00,VWS V14.01,2013-11-06 21:25:00,
2013-11-06 16:30:00,57.4,46.6,30.27,SSW,192,0.0,0.0,67,0.00,,BKN055,0.00,VWS V14.01,2013-11-06 21:30:00,
2013-11-06 16:35:00,57.2,46.5,30.24,South,182,0.0,0.0,67,0.00,,BKN055,0.00,VWS V14.01,2013-11-06 21:35:00,
2013-11-06 16:40:00,57.2,46.5,30.24,South,176,0.0,0.0,67,0.00,,BKN055,0.00,VWS V14.01,2013-11-06 21:40:00,
2013-11-06 16:45:00,57.0,46.5,30.24,South,176,0.0,0.0,68,0.00,,BKN055,0.00,VWS V14.01,2013-11-06 21:45:00,
2013-11-06 16:50:00,57.0,46.5,30.24,ENE,59,0.0,0.0,68,0.00,,BKN055,0.00,VWS V14.01,2013-11-06 21:50:00,
2013-11-06 16:55:00,56.8,46.4,30.24,ENE,65,6.3,6.3,68,0.00,,BKN055,0.00,VWS V14.01,2013-11-06 21:55:00,
2013-11-06 17:00:00,56.8,46.6,30.24,ESE,106,0.0,9.8,69,0.00,,BKN055,0.00,VWS V14.01,2013-11-06 22:00:00,
2013-11-06 17:05:00,56.7,46.5,30.24,ESE,106,0.0,0.0,69,0.00,,OVC060,0.00,VWS V14.01,2013-11-06 22:05:00,
2013-11-06 17:10:00,56.7,46.7,30.24,ESE,106,0.0,0.0,69,0.00,,OVC060,0.00,VWS V14.01,2013-11-06 22:10:00,
2013-11-06 17:15:00,56.5,46.5,30.24,ESE,106,0.0,0.0,69,0.00,,OVC060,0.00,VWS V14.01,2013-11-06 22:15:00,
2013-11-06 17:20:00,56.3,46.4,30.24,ESE,111,0.0,0.0,69,0.00,,OVC060,0.00,VWS V14.01,2013-11-06 22:20:00,
2013-11-06 17:25:00,55.9,46.3,30.24,ESE,111,0.0,0.0,70,0.00,,OVC060,0.00,VWS V14.01,2013-11-06 22:25:00,
2013-11-06 17:30:00,55.8,46.1,30.24,ESE,111,0.0,0.0,70,0.00,,OVC060,0.00,VWS V14.01,2013-11-06 22:30:00,
2013-11-06 17:35:00,55.2,45.9,30.24,ESE,111,0.0,0.0,71,0.00,,OVC060,0.00,VWS V14.01,2013-11-06 22:35:00,
2013-11-06 17:40:00,54.9,45.8,30.24,ESE,111,0.0,0.0,71,0.00,,OVC060,0.00,VWS V14.01,2013-11-06 22:40:00,
2013-11-06 17:45:00,54.3,45.5,30.24,ESE,111,0.0,0.0,72,0.00,,OVC060,0.00,VWS V14.01,2013-11-06 22:45:00,
2013-11-06 17:50:00,54.0,45.4,30.24,ESE,111,0.0,0.0,73,0.00,,OVC060,0.00,VWS V14.01,2013-11-06 22:50:00,
2013-11-06 17:55:00,54.0,45.9,30.24,ESE,111,0.0,0.0,74,0.00,,OVC060,0.00,VWS V14.01,2013-11-06 22:55:00,
2013-11-06 18:00:00,53.6,45.5,30.24,ESE,111,0.0,0.0,74,0.00,,OVC060,0.00,VWS V14.01,2013-11-06 23:00:00,
2013-11-06 18:05:00,53.2,45.2,30.24,ESE,111,0.0,0.0,74,0.00,,BKN070,0.00,VWS V14.01,2013-11-06 23:05:00,
2013-11-06 18:10:00,52.9,45.1,30.24,ESE,111,0.0,0.0,75,0.00,,BKN070,0.00,VWS V14.01,2013-11-06 23:10:00,
2013-11-06 18:15:00,52.7,44.9,30.21,ESE,111,0.0,0.0,75,0.00,,BKN070,0.00,VWS V14.01,2013-11-06 23:15:00,
2013-11-06 18:20:00,52.3,44.5,30.21,ESE,111,0.0,0.0,75,0.00,,BKN070,0.00,VWS V14.01,2013-11-06 23:20:00,
2013-11-06 18:25:00,52.2,44.6,30.21,ESE,111,0.0,0.0,75,0.00,,BKN070,0.00,VWS V14.01,2013-11-06 23:25:00,
2013-11-06 18:30:00,52.2,45.1,30.21,ESE,111,0.0,0.0,77,0.00,,BKN070,0.00,VWS V14.01,2013-11-06 23:30:00,
2013-11-06 18:35:00,52.3,45.3,30.21,ESE,111,0.0,0.0,77,0.00,,BKN070,0.00,VWS V14.01,2013-11-06 23:35:00,
2013-11-06 18:40:00,52.3,45.3,30.21,ESE,111,0.0,0.0,77,0.00,,BKN070,0.00,VWS V14.01,2013-11-06 23:40:00,
2013-11-06 18:45:00,52.3,45.3,30.21,ESE,111,0.0,0.0,77,0.00,,BKN070,0.00,VWS V14.01,2013-11-06 23:45:00,
2013-11-06 18:50:00,52.5,45.4,30.21,ESE,111,0.0,0.0,77,0.00,,BKN070,0.00,VWS V14.01,2013-11-06 23:50:00,
2013-11-06 18:55:00,52.5,45.7,30.21,ESE,111,0.0,0.0,77,0.00,,BKN070,0.00,VWS V14.01,2013-11-06 23:55:00,
2013-11-06 19:00:00,52.3,45.5,30.21,ESE,111,0.0,0.0,77,0.00,,BKN070,0.00,VWS V14.01,2013-11-07 00:00:00,
2013-11-06 19:05:00,52.0,45.1,30.21,ESE,111,0.0,0.0,77,0.00,,OVC065,0.00,VWS V14.01,2013-11-07 00:05:00,
2013-11-06 19:10:00,51.6,45.0,30.21,ESE,111,0.0,0.0,78,0.00,,OVC065,0.00,VWS V14.01,2013-11-07 00:10:00,
2013-11-06 19:15:00,51.4,45.1,30.21,ESE,111,0.0,0.0,79,0.00,,OVC065,0.00,VWS V14.01,2013-11-07 00:15:00,
2013-11-06 19:20:00,51.3,45.1,30.21,ESE,111,0.0,0.0,79,0.00,,OVC065,0.00,VWS V14.01,2013-11-07 00:20:00,
2013-11-06 19:25:00,51.4,45.5,30.21,ESE,111,0.0,0.0,80,0.00,,OVC065,0.00,VWS V14.01,2013-11-07 00:25:00,
2013-11-06 19:30:00,51.4,45.7,30.21,ESE,111,0.0,0.0,81,0.00,,OVC065,0.00,VWS V14.01,2013-11-07 00:30:00,
2013-11-06 19:35:00,51.3,45.6,30.18,ESE,111,0.0,0.0,81,0.00,,OVC065,0.00,VWS V14.01,2013-11-07 00:35:00,
2013-11-06 19:40:00,51.6,46.6,30.18,ESE,111,0.0,0.0,83,0.00,,OVC065,0.00,VWS V14.01,2013-11-07 00:40:00,
2013-11-06 19:45:00,51.8,46.8,30.18,ESE,111,0.0,0.0,83,0.00,,OVC065,0.00,VWS V14.01,2013-11-07 00:45:00,
2013-11-06 19:50:00,52.0,46.9,30.18,ESE,111,0.0,0.0,83,0.00,,OVC065,0.00,VWS V14.01,2013-11-07 00:50:00,
2013-11-06 19:55:00,51.8,46.5,30.18,ESE,111,0.0,0.0,82,0.00,,OVC065,0.00,VWS V14.01,2013-11-07 00:55:00,
2013-11-06 20:00:00,51.8,46.8,30.18,ESE,111,0.0,0.0,83,0.00,,OVC065,0.00,VWS V14.01,2013-11-07 01:00:00,
2013-11-06 20:05:00,51.8,46.8,30.18,ESE,111,0.0,0.0,83,0.00,,-RA,0.00,VWS V14.01,2013-11-07 01:05:00,
2013-11-06 20:10:00,51.8,46.8,30.18,ESE,111,0.0,0.0,83,0.00,,-RA,0.00,VWS V14.01,2013-11-07 01:10:00,
2013-11-06 20:15:00,51.6,46.8,30.18,ESE,111,0.0,0.0,83,0.00,,-RA,0.00,VWS V14.01,2013-11-07 01:15:00,
2013-11-06 20:20:00,52.0,47.3,30.18,ESE,111,0.0,0.0,84,0.00,,-RA,0.00,VWS V14.01,2013-11-07 01:20:00,
2013-11-06 20:25:00,52.0,47.3,30.18,ESE,111,0.0,0.0,84,0.00,,-RA,0.00,VWS V14.01,2013-11-07 01:25:00,
2013-11-06 20:30:00,52.0,47.6,30.18,ESE,111,0.0,0.0,85,0.00,,-RA,0.00,VWS V14.01,2013-11-07 01:30:00,
2013-11-06 20:35:00,51.8,47.6,30.18,ESE,111,0.0,0.0,86,0.00,,-RA,0.00,VWS V14.01,2013-11-07 01:35:00,
2013-11-06 20:40:00,51.6,47.4,30.18,ESE,111,0.0,0.0,86,0.00,,-RA,0.00,VWS V14.01,2013-11-07 01:40:00,
2013-11-06 20:45:00,51.6,47.6,30.15,ESE,111,0.0,0.0,86,0.00,,-RA,0.00,VWS V14.01,2013-11-07 01:45:00,
2013-11-06 20:50:00,51.4,47.5,30.15,ESE,111,0.0,0.0,86,0.00,,-RA,0.00,VWS V14.01,2013-11-07 01:50:00,
2013-11-06 20:54:00,51.4,47.9,30.15,ESE,111,0.0,0.0,88,0.00,,-RA,0.00,VWS V14.01,2013-11-07 01:54:00,
2013-11-06 20:59:00,51.3,47.7,30.15,ESE,111,0.0,0.0,88,0.00,,-RA,0.00,VWS V14.01,2013-11-07 01:59:00,
2013-11-06 21:04:00,51.1,47.5,30.15,ESE,111,0.0,0.0,88,0.00,,-RA,0.00,VWS V14.01,2013-11-07 02:04:00,
2013-11-06 21:09:00,50.7,47.2,30.15,ESE,111,0.0,0.0,88,0.00,,-RA,0.00,VWS V14.01,2013-11-07 02:09:00,
2013-11-06 21:14:00,50.5,47.2,30.15,ESE,111,0.0,0.0,88,0.00,,-RA,0.00,VWS V14.01,2013-11-07 02:14:00,
2013-11-06 21:19:00,50.5,47.2,30.15,ESE,111,0.0,0.0,88,0.00,,-RA,0.00,VWS V14.01,2013-11-07 02:19:00,
2013-11-06 21:24:00,50.4,47.2,30.15,ESE,111,0.0,0.0,89,0.00,,-RA,0.00,VWS V14.01,2013-11-07 02:24:00,
2013-11-06 21:29:00,50.4,47.2,30.15,ESE,111,0.0,0.0,89,0.00,,-RA,0.00,VWS V14.01,2013-11-07 02:29:00,
2013-11-06 21:34:00,50.4,47.4,30.15,ESE,111,0.0,0.0,90,0.00,,-RA,0.00,VWS V14.01,2013-11-07 02:34:00,
2013-11-06 21:39:00,50.4,47.6,30.15,ESE,111,0.0,0.0,90,0.00,,-RA,0.00,VWS V14.01,2013-11-07 02:39:00,
2013-11-06 21:44:00,50.5,47.8,30.15,ESE,111,0.0,0.0,90,0.00,,-RA,0.00,VWS V14.01,2013-11-07 02:44:00,
2013-11-06 21:49:00,50.9,48.3,30.15,ESE,111,0.0,0.0,91,0.00,,-RA,0.00,VWS V14.01,2013-11-07 02:49:00,
2013-11-06 21:54:00,51.1,48.5,30.15,ESE,111,0.0,0.0,91,0.00,,-RA,0.00,VWS V14.01,2013-11-07 02:54:00,
2013-11-06 21:59:00,51.3,48.9,30.15,ESE,111,0.0,0.0,92,0.00,,-RA,0.00,VWS V14.01,2013-11-07 02:59:00,
2013-11-06 22:04:00,51.3,48.7,30.15,ESE,111,0.0,0.0,91,0.00,,-RA,0.00,VWS V14.01,2013-11-07 03:04:00,
2013-11-06 22:09:00,51.3,48.9,30.15,ESE,111,0.0,0.0,92,0.00,,-RA,0.00,VWS V14.01,2013-11-07 03:09:00,
2013-11-06 22:14:00,51.4,49.1,30.15,ESE,111,0.0,0.0,92,0.00,,-RA,0.00,VWS V14.01,2013-11-07 03:14:00,
2013-11-06 22:19:00,51.6,49.3,30.12,ESE,111,0.0,0.0,92,0.00,,-RA,0.00,VWS V14.01,2013-11-07 03:19:00,
2013-11-06 22:24:00,51.6,49.3,30.12,ESE,111,0.0,0.0,92,0.00,,-RA,0.00,VWS V14.01,2013-11-07 03:24:00,
2013-11-06 22:29:00,51.4,49.1,30.12,ESE,108,0.0,0.0,92,0.00,,-RA,0.00,VWS V14.01,2013-11-07 03:29:00,
2013-11-06 22:34:00,51.3,48.9,30.12,ESE,108,0.0,0.0,92,0.00,,-RA,0.00,VWS V14.01,2013-11-07 03:34:00,
2013-11-06 22:39:00,51.1,48.7,30.12,ESE,108,0.0,0.0,92,0.00,,-RA,0.00,VWS V14.01,2013-11-07 03:39:00,
2013-11-06 22:44:00,51.1,48.7,30.12,ESE,108,0.0,0.0,92,0.00,,-RA,0.00,VWS V14.01,2013-11-07 03:44:00,
2013-11-06 22:49:00,51.3,49.1,30.12,ESE,108,0.0,0.0,92,0.00,,-RA,0.00,VWS V14.01,2013-11-07 03:49:00,
2013-11-06 22:54:00,51.6,49.5,30.12,ESE,108,0.0,0.0,92,0.00,,-RA,0.00,VWS V14.01,2013-11-07 03:54:00,
2013-11-06 22:59:00,51.8,49.6,30.12,ESE,108,0.0,0.0,92,0.00,,-RA,0.00,VWS V14.01,2013-11-07 03:59:00,
2013-11-06 23:04:00,52.2,50.2,30.12,ESE,108,0.0,0.0,93,0.00,,-RA,0.00,VWS V14.01,2013-11-07 04:04:00,
2013-11-06 23:09:00,52.3,50.4,30.12,ESE,108,0.0,0.0,93,0.00,,-RA,0.00,VWS V14.01,2013-11-07 04:09:00,
2013-11-06 23:14:00,52.7,50.7,30.12,ESE,108,0.0,0.0,93,0.00,,-RA,0.00,VWS V14.01,2013-11-07 04:14:00,
2013-11-06 23:19:00,53.1,51.3,30.09,ESE,108,0.0,0.0,94,0.00,,-RA,0.00,VWS V14.01,2013-11-07 04:19:00,
2013-11-06 23:24:00,53.8,52.2,30.09,ESE,108,0.0,0.0,94,0.00,,-RA,0.00,VWS V14.01,2013-11-07 04:24:00,
2013-11-06 23:29:00,54.3,52.7,30.09,ESE,108,0.0,0.0,94,0.00,,-RA,0.00,VWS V14.01,2013-11-07 04:29:00,
2013-11-06 23:34:00,54.9,53.5,30.09,ESE,108,5.4,5.4,95,0.00,,-RA,0.00,VWS V14.01,2013-11-07 04:34:00,
2013-11-06 23:39:00,55.2,53.8,30.09,ESE,108,0.0,0.0,95,0.00,,-RA,0.00,VWS V14.01,2013-11-07 04:39:00,
2013-11-06 23:44:00,55.2,54.0,30.09,ESE,108,0.0,0.0,96,0.00,,-RA,0.00,VWS V14.01,2013-11-07 04:44:00,
2013-11-06 23:49:00,55.2,54.0,30.09,ESE,108,0.0,0.0,96,0.00,,-RA,0.00,VWS V14.01,2013-11-07 04:49:00,
2013-11-06 23:54:00,55.4,54.2,30.09,ESE,108,0.0,0.0,96,0.00,,-RA,0.00,VWS V14.01,2013-11-07 04:54:00,
2013-11-06 23:59:00,55.6,54.4,30.09,ESE,108,0.0,0.0,96,0.00,,-RA,0.00,VWS V14.01,2013-11-07 04:59:00,